contact:dominique.lefevre@mio.osupytheas.fr, maurice.libes@osupytheas.fr, didier.mallarino@osupytheas.fr
Project:EMSO http://www.emso-fr.org/EMSO-France
Depth: 2436.0 m
Title:EMSO Ligure Ouest : Data MII capteur MICROCAT
DateTime_Computer,Latitude,Longitude,Temperature,Conductivity,Pressure,DateTime_Instrument
DateTime_Computer,Latitude,Longitude,degC,S m-1,dbar,DateTime_Instrument
2020-08-15T00:01:47Z,42.805,6.029,13.2972,4.59974,2470.04,2020-8-15T02:02:37Z
2020-08-15T00:04:51Z,42.805,6.029,13.2972,4.59974,2470.133,2020-8-15T02:05:40Z
2020-08-15T00:07:54Z,42.805,6.029,13.2968,4.59976,2470.11,2020-8-15T02:08:43Z
2020-08-15T00:10:57Z,42.805,6.029,13.2972,4.59974,2470.087,2020-8-15T02:11:46Z
2020-08-15T00:14:00Z,42.805,6.029,13.2970,4.59974,2470.1,2020-8-15T02:14:50Z
2020-08-15T00:17:04Z,42.805,6.029,13.2974,4.59975,2470.11,2020-8-15T02:17:53Z
2020-08-15T00:20:07Z,42.805,6.029,13.2971,4.59973,2470.087,2020-8-15T02:20:56Z
2020-08-15T00:23:10Z,42.805,6.029,13.2975,4.59973,2470.063,2020-8-15T02:23:59Z
2020-08-15T00:26:13Z,42.805,6.029,13.2971,4.59973,2470.11,2020-8-15T02:27:02Z
2020-08-15T00:29:16Z,42.805,6.029,13.2971,4.59974,2470.11,2020-8-15T02:30:06Z
2020-08-15T00:32:20Z,42.805,6.029,13.2975,4.59973,2470.11,2020-8-15T02:33:09Z
2020-08-15T00:35:23Z,42.805,6.029,13.2970,4.59973,2470.11,2020-8-15T02:36:12Z
2020-08-15T00:38:26Z,42.805,6.029,13.2969,4.59974,2470.11,2020-8-15T02:39:15Z
2020-08-15T00:41:29Z,42.805,6.029,13.2975,4.59974,2470.087,2020-8-15T02:42:19Z
2020-08-15T00:44:33Z,42.805,6.029,13.2974,4.59973,2470.11,2020-8-15T02:45:22Z
2020-08-15T00:47:36Z,42.805,6.029,13.2972,4.59973,2470.1,2020-8-15T02:48:25Z
2020-08-15T00:50:39Z,42.805,6.029,13.2973,4.59973,2470.073,2020-8-15T02:51:29Z
2020-08-15T00:53:43Z,42.805,6.029,13.2975,4.59973,2470.124,2020-8-15T02:54:32Z
2020-08-15T00:56:46Z,42.805,6.029,13.2970,4.59975,2470.124,2020-8-15T02:57:35Z
2020-08-15T00:59:49Z,42.805,6.029,13.2973,4.59974,2470.087,2020-8-15T03:00:38Z
2020-08-15T01:02:52Z,42.805,6.029,13.2971,4.59973,2470.087,2020-8-15T03:03:41Z
2020-08-15T01:05:56Z,42.805,6.029,13.2974,4.59973,2470.11,2020-8-15T03:06:45Z
2020-08-15T01:08:59Z,42.805,6.029,13.2973,4.59974,2470.11,2020-8-15T03:09:48Z
2020-08-15T01:12:02Z,42.805,6.029,13.2974,4.59973,2470.11,2020-8-15T03:12:51Z
2020-08-15T01:15:05Z,42.805,6.029,13.2972,4.59973,2470.063,2020-8-15T03:15:54Z
2020-08-15T01:18:08Z,42.805,6.029,13.2973,4.59974,2470.156,2020-8-15T03:18:58Z
2020-08-15T01:21:12Z,42.805,6.029,13.2976,4.59974,2470.147,2020-8-15T03:22:01Z
2020-08-15T01:24:15Z,42.805,6.029,13.2972,4.59974,2470.11,2020-8-15T03:25:04Z
2020-08-15T01:27:18Z,42.805,6.029,13.2974,4.59973,2470.11,2020-8-15T03:28:07Z
2020-08-15T01:30:22Z,42.805,6.029,13.2974,4.59973,2470.11,2020-8-15T03:31:11Z
2020-08-15T01:33:25Z,42.805,6.029,13.2972,4.59974,2470.11,2020-8-15T03:34:14Z
2020-08-15T01:36:28Z,42.805,6.029,13.2973,4.59974,2470.11,2020-8-15T03:37:17Z
2020-08-15T01:39:31Z,42.805,6.029,13.2971,4.59974,2470.11,2020-8-15T03:40:20Z
2020-08-15T01:42:35Z,42.805,6.029,13.2971,4.59973,2470.11,2020-8-15T03:43:24Z
2020-08-15T01:45:38Z,42.805,6.029,13.2971,4.59973,2470.11,2020-8-15T03:46:27Z
2020-08-15T01:48:41Z,42.805,6.029,13.2973,4.59974,2470.147,2020-8-15T03:49:30Z
2020-08-15T01:51:44Z,42.805,6.029,13.2972,4.59974,2470.133,2020-8-15T03:52:33Z
2020-08-15T01:54:48Z,42.805,6.029,13.2971,4.59973,2470.133,2020-8-15T03:55:37Z
2020-08-15T01:57:51Z,42.805,6.029,13.2970,4.59974,2470.133,2020-8-15T03:58:40Z
2020-08-15T02:00:54Z,42.805,6.029,13.2972,4.59975,2470.133,2020-8-15T04:01:43Z
2020-08-15T02:03:57Z,42.805,6.029,13.2971,4.59973,2470.11,2020-8-15T04:04:47Z
2020-08-15T02:07:01Z,42.805,6.029,13.2975,4.59973,2470.133,2020-8-15T04:07:50Z
2020-08-15T02:10:04Z,42.805,6.029,13.2971,4.59973,2470.124,2020-8-15T04:10:53Z
2020-08-15T02:13:07Z,42.805,6.029,13.2973,4.59973,2470.133,2020-8-15T04:13:56Z
2020-08-15T02:16:10Z,42.805,6.029,13.2974,4.59974,2470.133,2020-8-15T04:17:00Z
2020-08-15T02:19:14Z,42.805,6.029,13.2970,4.59974,2470.124,2020-8-15T04:20:03Z
2020-08-15T02:22:17Z,42.805,6.029,13.2972,4.59974,2470.11,2020-8-15T04:23:06Z
2020-08-15T02:25:20Z,42.805,6.029,13.2973,4.59973,2470.147,2020-8-15T04:26:09Z
2020-08-15T02:28:23Z,42.805,6.029,13.2970,4.59973,2470.11,2020-8-15T04:29:13Z
2020-08-15T02:31:27Z,42.805,6.029,13.2973,4.59974,2470.133,2020-8-15T04:32:16Z
2020-08-15T02:34:30Z,42.805,6.029,13.2974,4.59974,2470.11,2020-8-15T04:35:19Z
2020-08-15T02:37:33Z,42.805,6.029,13.2972,4.59974,2470.133,2020-8-15T04:38:22Z
2020-08-15T02:40:37Z,42.805,6.029,13.2971,4.59974,2470.124,2020-8-15T04:41:26Z
2020-08-15T02:43:40Z,42.805,6.029,13.2969,4.59974,2470.147,2020-8-15T04:44:29Z
2020-08-15T02:46:43Z,42.805,6.029,13.2974,4.59973,2470.156,2020-8-15T04:47:32Z
2020-08-15T02:49:46Z,42.805,6.029,13.2977,4.59975,2470.133,2020-8-15T04:50:36Z
2020-08-15T02:52:50Z,42.805,6.029,13.2974,4.59974,2470.147,2020-8-15T04:53:39Z
2020-08-15T02:55:53Z,42.805,6.029,13.2971,4.59973,2470.133,2020-8-15T04:56:42Z
2020-08-15T02:58:56Z,42.805,6.029,13.2974,4.59973,2470.133,2020-8-15T04:59:45Z
2020-08-15T03:01:59Z,42.805,6.029,13.2974,4.59974,2470.156,2020-8-15T05:02:49Z
2020-08-15T03:05:03Z,42.805,6.029,13.2970,4.59973,2470.156,2020-8-15T05:05:52Z
2020-08-15T03:08:06Z,42.805,6.029,13.2974,4.59973,2470.133,2020-8-15T05:08:55Z
2020-08-15T03:11:09Z,42.805,6.029,13.2974,4.59973,2470.133,2020-8-15T05:11:58Z
2020-08-15T03:14:12Z,42.805,6.029,13.2971,4.59974,2470.133,2020-8-15T05:15:02Z
2020-08-15T03:17:16Z,42.805,6.029,13.2974,4.59973,2470.133,2020-8-15T05:18:05Z
2020-08-15T03:20:19Z,42.805,6.029,13.2971,4.59973,2470.087,2020-8-15T05:21:08Z
2020-08-15T03:23:22Z,42.805,6.029,13.2970,4.59974,2470.124,2020-8-15T05:24:11Z
2020-08-15T03:26:26Z,42.805,6.029,13.2974,4.59974,2470.156,2020-8-15T05:27:15Z
2020-08-15T03:29:29Z,42.805,6.029,13.2972,4.59973,2470.11,2020-8-15T05:30:18Z
2020-08-15T03:32:32Z,42.805,6.029,13.2976,4.59973,2470.11,2020-8-15T05:33:21Z
2020-08-15T03:35:35Z,42.805,6.029,13.2971,4.59975,2470.147,2020-8-15T05:36:24Z
2020-08-15T03:38:38Z,42.805,6.029,13.2974,4.59973,2470.119,2020-8-15T05:39:28Z
2020-08-15T03:41:42Z,42.805,6.029,13.2973,4.59973,2470.156,2020-8-15T05:42:31Z
2020-08-15T03:44:45Z,42.805,6.029,13.2969,4.59973,2470.133,2020-8-15T05:45:34Z
2020-08-15T03:47:48Z,42.805,6.029,13.2975,4.59973,2470.147,2020-8-15T05:48:37Z
2020-08-15T03:50:51Z,42.805,6.029,13.2976,4.59974,2470.133,2020-8-15T05:51:41Z
2020-08-15T03:53:55Z,42.805,6.029,13.2974,4.59974,2470.133,2020-8-15T05:54:44Z
2020-08-15T03:56:58Z,42.805,6.029,13.2973,4.59975,2470.147,2020-8-15T05:57:47Z
2020-08-15T04:00:01Z,42.805,6.029,13.2970,4.59973,2470.171,2020-8-15T06:00:50Z
2020-08-15T04:03:04Z,42.805,6.029,13.2970,4.59973,2470.156,2020-8-15T06:03:54Z
2020-08-15T04:06:08Z,42.805,6.029,13.2972,4.59973,2470.147,2020-8-15T06:06:57Z
2020-08-15T04:09:11Z,42.805,6.029,13.2976,4.59973,2470.156,2020-8-15T06:10:00Z
2020-08-15T04:12:14Z,42.805,6.029,13.2972,4.59973,2470.133,2020-8-15T06:13:03Z
2020-08-15T04:15:17Z,42.805,6.029,13.2968,4.59973,2470.133,2020-8-15T06:16:06Z
2020-08-15T04:18:21Z,42.805,6.029,13.2974,4.59975,2470.147,2020-8-15T06:19:10Z
2020-08-15T04:21:24Z,42.805,6.029,13.2973,4.59973,2470.156,2020-8-15T06:22:13Z
2020-08-15T04:24:27Z,42.805,6.029,13.2970,4.59973,2470.11,2020-8-15T06:25:16Z
2020-08-15T04:27:30Z,42.805,6.029,13.2974,4.59973,2470.171,2020-8-15T06:28:19Z
2020-08-15T04:30:33Z,42.805,6.029,13.2971,4.59975,2470.133,2020-8-15T06:31:23Z
2020-08-15T04:33:37Z,42.805,6.029,13.2970,4.59973,2470.156,2020-8-15T06:34:26Z
2020-08-15T04:36:40Z,42.805,6.029,13.2974,4.59973,2470.156,2020-8-15T06:37:29Z
2020-08-15T04:39:43Z,42.805,6.029,13.2968,4.59973,2470.156,2020-8-15T06:40:32Z
2020-08-15T04:42:47Z,42.805,6.029,13.2970,4.59973,2470.156,2020-8-15T06:43:36Z
2020-08-15T04:45:50Z,42.805,6.029,13.2974,4.59973,2470.124,2020-8-15T06:46:39Z
2020-08-15T04:48:53Z,42.805,6.029,13.2970,4.59975,2470.133,2020-8-15T06:49:42Z
2020-08-15T04:51:56Z,42.805,6.029,13.2967,4.59973,2470.11,2020-8-15T06:52:45Z
2020-08-15T04:54:59Z,42.805,6.029,13.2974,4.59973,2470.133,2020-8-15T06:55:49Z
2020-08-15T04:58:03Z,42.805,6.029,13.2974,4.59973,2470.133,2020-8-15T06:58:52Z
2020-08-15T05:01:06Z,42.805,6.029,13.2973,4.59975,2470.156,2020-8-15T07:01:55Z
2020-08-15T05:04:10Z,42.805,6.029,13.2968,4.59973,2470.156,2020-8-15T07:04:59Z
2020-08-15T05:07:13Z,42.805,6.029,13.2974,4.59973,2470.147,2020-8-15T07:08:02Z
2020-08-15T05:10:16Z,42.805,6.029,13.2974,4.59973,2470.133,2020-8-15T07:11:05Z
2020-08-15T05:13:20Z,42.805,6.029,13.2971,4.59972,2470.133,2020-8-15T07:14:09Z
2020-08-15T05:16:23Z,42.805,6.029,13.2971,4.59975,2470.156,2020-8-15T07:17:12Z
2020-08-15T05:19:26Z,42.805,6.029,13.2971,4.59973,2470.147,2020-8-15T07:20:15Z
2020-08-15T05:22:29Z,42.805,6.029,13.2974,4.59973,2470.11,2020-8-15T07:23:19Z
2020-08-15T05:25:33Z,42.805,6.029,13.2974,4.59973,2470.133,2020-8-15T07:26:22Z
2020-08-15T05:28:36Z,42.805,6.029,13.2973,4.59973,2470.133,2020-8-15T07:29:25Z
2020-08-15T05:31:39Z,42.805,6.029,13.2976,4.59973,2470.133,2020-8-15T07:32:28Z
2020-08-15T05:34:42Z,42.805,6.029,13.2969,4.59974,2470.133,2020-8-15T07:35:32Z
2020-08-15T05:37:46Z,42.805,6.029,13.2968,4.59974,2470.11,2020-8-15T07:38:35Z
2020-08-15T05:40:49Z,42.805,6.029,13.2970,4.59973,2470.11,2020-8-15T07:41:38Z
2020-08-15T05:43:52Z,42.805,6.029,13.2971,4.59973,2470.156,2020-8-15T07:44:41Z
2020-08-15T05:46:55Z,42.805,6.029,13.2973,4.59973,2470.171,2020-8-15T07:47:44Z
2020-08-15T05:49:58Z,42.805,6.029,13.2971,4.59973,2470.133,2020-8-15T07:50:48Z
2020-08-15T05:53:02Z,42.805,6.029,13.2971,4.59973,2470.11,2020-8-15T07:53:51Z
2020-08-15T05:56:05Z,42.805,6.029,13.2971,4.59976,2470.147,2020-8-15T07:56:54Z
2020-08-15T05:59:08Z,42.805,6.029,13.2970,4.59973,2470.133,2020-8-15T07:59:57Z
2020-08-15T06:02:12Z,42.805,6.029,13.2976,4.59973,2470.11,2020-8-15T08:03:01Z
2020-08-15T06:05:15Z,42.805,6.029,13.2973,4.59973,2470.133,2020-8-15T08:06:04Z
2020-08-15T06:08:18Z,42.805,6.029,13.2971,4.59973,2470.133,2020-8-15T08:09:07Z
2020-08-15T06:11:21Z,42.805,6.029,13.2970,4.59973,2470.11,2020-8-15T08:12:10Z
2020-08-15T06:14:24Z,42.805,6.029,13.2972,4.59973,2470.11,2020-8-15T08:15:14Z
2020-08-15T06:17:28Z,42.805,6.029,13.2971,4.59973,2470.147,2020-8-15T08:18:17Z
2020-08-15T06:20:31Z,42.805,6.029,13.2967,4.59973,2470.147,2020-8-15T08:21:20Z
2020-08-15T06:23:34Z,42.805,6.029,13.2974,4.59974,2470.133,2020-8-15T08:24:23Z
2020-08-15T06:26:37Z,42.805,6.029,13.2971,4.59974,2470.11,2020-8-15T08:27:27Z
2020-08-15T06:29:41Z,42.805,6.029,13.2974,4.59973,2470.11,2020-8-15T08:30:30Z
2020-08-15T06:32:44Z,42.805,6.029,13.2972,4.59973,2470.133,2020-8-15T08:33:33Z
2020-08-15T06:35:47Z,42.805,6.029,13.2972,4.59973,2470.11,2020-8-15T08:36:36Z
2020-08-15T06:38:50Z,42.805,6.029,13.2972,4.59973,2470.087,2020-8-15T08:39:39Z
2020-08-15T06:41:53Z,42.805,6.029,13.2972,4.59973,2470.133,2020-8-15T08:42:43Z
2020-08-15T06:44:57Z,42.805,6.029,13.2973,4.59973,2470.124,2020-8-15T08:45:46Z
2020-08-15T06:48:00Z,42.805,6.029,13.2974,4.59973,2470.124,2020-8-15T08:48:49Z
2020-08-15T06:51:03Z,42.805,6.029,13.2976,4.59973,2470.087,2020-8-15T08:51:52Z
2020-08-15T06:54:06Z,42.805,6.029,13.2975,4.59974,2470.087,2020-8-15T08:54:56Z
2020-08-15T06:57:10Z,42.805,6.029,13.2970,4.59974,2470.096,2020-8-15T08:57:59Z
2020-08-15T07:00:13Z,42.805,6.029,13.2968,4.59975,2470.124,2020-8-15T09:01:02Z
2020-08-15T07:03:16Z,42.805,6.029,13.2970,4.59973,2470.11,2020-8-15T09:04:05Z
2020-08-15T07:06:19Z,42.805,6.029,13.2972,4.59973,2470.077,2020-8-15T09:07:09Z
2020-08-15T07:09:23Z,42.805,6.029,13.2970,4.59973,2470.087,2020-8-15T09:10:12Z
2020-08-15T07:12:26Z,42.805,6.029,13.2971,4.59974,2470.11,2020-8-15T09:13:15Z
2020-08-15T07:15:29Z,42.805,6.029,13.2973,4.59973,2470.11,2020-8-15T09:16:18Z
2020-08-15T07:18:32Z,42.805,6.029,13.2971,4.59973,2470.11,2020-8-15T09:19:22Z
2020-08-15T07:21:36Z,42.805,6.029,13.2971,4.59973,2470.11,2020-8-15T09:22:25Z
2020-08-15T07:24:39Z,42.805,6.029,13.2976,4.59973,2470.063,2020-8-15T09:25:28Z
2020-08-15T07:27:42Z,42.805,6.029,13.2974,4.59974,2470.087,2020-8-15T09:28:31Z
2020-08-15T07:30:45Z,42.805,6.029,13.2973,4.59973,2470.11,2020-8-15T09:31:35Z
2020-08-15T07:33:49Z,42.805,6.029,13.2970,4.59974,2470.1,2020-8-15T09:34:38Z
2020-08-15T07:36:52Z,42.805,6.029,13.2974,4.59974,2470.077,2020-8-15T09:37:41Z
2020-08-15T07:39:55Z,42.805,6.029,13.2971,4.59974,2470.087,2020-8-15T09:40:45Z
2020-08-15T07:42:59Z,42.805,6.029,13.2971,4.59973,2470.087,2020-8-15T09:43:48Z
2020-08-15T07:46:02Z,42.805,6.029,13.2975,4.59974,2470.1,2020-8-15T09:46:51Z
2020-08-15T07:49:05Z,42.805,6.029,13.2972,4.59973,2470.1,2020-8-15T09:49:54Z
2020-08-15T07:52:08Z,42.805,6.029,13.2974,4.59974,2470.063,2020-8-15T09:52:57Z
2020-08-15T07:55:11Z,42.805,6.029,13.2974,4.59973,2470.063,2020-8-15T09:56:01Z
2020-08-15T07:58:15Z,42.805,6.029,13.2969,4.59973,2470.077,2020-8-15T09:59:04Z
2020-08-15T08:01:18Z,42.805,6.029,13.2971,4.59973,2470.077,2020-8-15T10:02:07Z
2020-08-15T08:04:21Z,42.805,6.029,13.2968,4.59973,2470.063,2020-8-15T10:05:10Z
2020-08-15T08:07:25Z,42.805,6.029,13.2974,4.59973,2470.087,2020-8-15T10:08:14Z
2020-08-15T08:10:28Z,42.805,6.029,13.2969,4.59973,2470.053,2020-8-15T10:11:17Z
2020-08-15T08:13:31Z,42.805,6.029,13.2974,4.59973,2470.087,2020-8-15T10:14:20Z
2020-08-15T08:16:35Z,42.805,6.029,13.2974,4.59972,2470.04,2020-8-15T10:17:24Z
2020-08-15T08:19:38Z,42.805,6.029,13.2975,4.59973,2470.053,2020-8-15T10:20:27Z
2020-08-15T08:22:41Z,42.805,6.029,13.2972,4.59974,2470.063,2020-8-15T10:23:30Z
2020-08-15T08:25:44Z,42.805,6.029,13.2972,4.59974,2470.1,2020-8-15T10:26:34Z
2020-08-15T08:28:48Z,42.805,6.029,13.2974,4.59975,2470.063,2020-8-15T10:29:37Z
2020-08-15T08:31:51Z,42.805,6.029,13.2969,4.59973,2470.063,2020-8-15T10:32:40Z
2020-08-15T08:34:54Z,42.805,6.029,13.2977,4.59973,2470.063,2020-8-15T10:35:44Z
2020-08-15T08:37:58Z,42.805,6.029,13.2968,4.59973,2470.077,2020-8-15T10:38:47Z
2020-08-15T08:41:01Z,42.805,6.029,13.2971,4.59973,2470.053,2020-8-15T10:41:50Z
2020-08-15T08:44:04Z,42.805,6.029,13.2970,4.59973,2470.063,2020-8-15T10:44:53Z
2020-08-15T08:47:07Z,42.805,6.029,13.2974,4.59973,2470.087,2020-8-15T10:47:57Z
2020-08-15T08:50:11Z,42.805,6.029,13.2972,4.59973,2470.063,2020-8-15T10:51:00Z
2020-08-15T08:53:14Z,42.805,6.029,13.2971,4.59972,2470.063,2020-8-15T10:54:03Z
2020-08-15T08:56:17Z,42.805,6.029,13.2973,4.59973,2470.087,2020-8-15T10:57:06Z
2020-08-15T08:59:20Z,42.805,6.029,13.2975,4.59973,2470.077,2020-8-15T11:00:10Z
2020-08-15T09:02:24Z,42.805,6.029,13.2971,4.59973,2470.063,2020-8-15T11:03:13Z
2020-08-15T09:05:27Z,42.805,6.029,13.2971,4.59973,2470.053,2020-8-15T11:06:16Z
2020-08-15T09:08:30Z,42.805,6.029,13.2967,4.59973,2470.063,2020-8-15T11:09:19Z
2020-08-15T09:11:33Z,42.805,6.029,13.2972,4.59973,2470.04,2020-8-15T11:12:23Z
2020-08-15T09:14:37Z,42.805,6.029,13.2971,4.59973,2470.017,2020-8-15T11:15:26Z
2020-08-15T09:17:40Z,42.805,6.029,13.2973,4.59973,2470.04,2020-8-15T11:18:29Z
2020-08-15T09:20:43Z,42.805,6.029,13.2968,4.59973,2470.063,2020-8-15T11:21:32Z
2020-08-15T09:23:46Z,42.805,6.029,13.2968,4.59974,2470.053,2020-8-15T11:24:35Z
2020-08-15T09:26:49Z,42.805,6.029,13.2971,4.59972,2470.04,2020-8-15T11:27:39Z
2020-08-15T09:29:53Z,42.805,6.029,13.2972,4.59973,2470.04,2020-8-15T11:30:42Z
2020-08-15T09:32:56Z,42.805,6.029,13.2968,4.59973,2470.063,2020-8-15T11:33:45Z
2020-08-15T09:35:59Z,42.805,6.029,13.2969,4.59972,2470.03,2020-8-15T11:36:48Z
2020-08-15T09:39:02Z,42.805,6.029,13.2969,4.59974,2470.053,2020-8-15T11:39:52Z
2020-08-15T09:42:06Z,42.805,6.029,13.2970,4.59973,2470.04,2020-8-15T11:42:55Z
2020-08-15T09:45:09Z,42.805,6.029,13.2967,4.59972,2470.063,2020-8-15T11:45:58Z
2020-08-15T09:48:12Z,42.805,6.029,13.2969,4.59973,2470.053,2020-8-15T11:49:01Z
2020-08-15T09:51:15Z,42.805,6.029,13.2972,4.59973,2470.04,2020-8-15T11:52:05Z
2020-08-15T09:54:19Z,42.805,6.029,13.2972,4.59973,2470.007,2020-8-15T11:55:08Z
2020-08-15T09:57:22Z,42.805,6.029,13.2970,4.59972,2470.017,2020-8-15T11:58:11Z
2020-08-15T10:00:25Z,42.805,6.029,13.2968,4.59973,2470.017,2020-8-15T12:01:14Z
2020-08-15T10:03:28Z,42.805,6.029,13.2972,4.59973,2470.03,2020-8-15T12:04:18Z
2020-08-15T10:06:32Z,42.805,6.029,13.2974,4.59973,2470.04,2020-8-15T12:07:21Z
2020-08-15T10:09:35Z,42.805,6.029,13.2970,4.59973,2470.017,2020-8-15T12:10:24Z
2020-08-15T10:12:38Z,42.805,6.029,13.2972,4.59973,2470.04,2020-8-15T12:13:27Z
2020-08-15T10:15:41Z,42.805,6.029,13.2976,4.59973,2470.063,2020-8-15T12:16:31Z
2020-08-15T10:18:45Z,42.805,6.029,13.2971,4.59972,2470.03,2020-8-15T12:19:34Z
2020-08-15T10:21:48Z,42.805,6.029,13.2972,4.59973,2470.053,2020-8-15T12:22:37Z
2020-08-15T10:24:51Z,42.805,6.029,13.2970,4.59973,2470.04,2020-8-15T12:25:40Z
2020-08-15T10:27:54Z,42.805,6.029,13.2968,4.59973,2470.017,2020-8-15T12:28:44Z
2020-08-15T10:30:58Z,42.805,6.029,13.2971,4.59972,2470.053,2020-8-15T12:31:47Z
2020-08-15T10:34:01Z,42.805,6.029,13.2973,4.59973,2470.017,2020-8-15T12:34:50Z
2020-08-15T10:37:04Z,42.805,6.029,13.2966,4.59973,2470.04,2020-8-15T12:37:53Z
2020-08-15T10:40:07Z,42.805,6.029,13.2969,4.59974,2470.017,2020-8-15T12:40:57Z
2020-08-15T10:43:11Z,42.805,6.029,13.2973,4.59972,2470.017,2020-8-15T12:44:00Z
2020-08-15T10:46:14Z,42.805,6.029,13.2972,4.59972,2470.017,2020-8-15T12:47:03Z
2020-08-15T10:49:17Z,42.805,6.029,13.2969,4.59973,2470.04,2020-8-15T12:50:06Z
2020-08-15T10:52:20Z,42.805,6.029,13.2973,4.59972,2470.04,2020-8-15T12:53:10Z
2020-08-15T10:55:24Z,42.805,6.029,13.2969,4.59973,2469.993,2020-8-15T12:56:13Z
2020-08-15T10:58:27Z,42.805,6.029,13.2972,4.59973,2470.017,2020-8-15T12:59:16Z
2020-08-15T11:01:30Z,42.805,6.029,13.2971,4.59973,2470.04,2020-8-15T13:02:19Z
2020-08-15T11:04:33Z,42.805,6.029,13.2969,4.59973,2470.003,2020-8-15T13:05:22Z
2020-08-15T11:07:37Z,42.805,6.029,13.2970,4.59973,2470.04,2020-8-15T13:08:26Z
2020-08-15T11:10:40Z,42.805,6.029,13.2967,4.59972,2470.053,2020-8-15T13:11:29Z
2020-08-15T11:13:43Z,42.805,6.029,13.2974,4.59975,2470.04,2020-8-15T13:14:32Z
2020-08-15T11:16:46Z,42.805,6.029,13.2974,4.59973,2470.03,2020-8-15T13:17:36Z
2020-08-15T11:19:50Z,42.805,6.029,13.2969,4.59972,2470.017,2020-8-15T13:20:39Z
2020-08-15T11:22:53Z,42.805,6.029,13.2974,4.59972,2470.04,2020-8-15T13:23:42Z
2020-08-15T11:25:56Z,42.805,6.029,13.2967,4.59972,2470.077,2020-8-15T13:26:45Z
2020-08-15T11:29:00Z,42.805,6.029,13.2971,4.59974,2470.053,2020-8-15T13:29:49Z
2020-08-15T11:32:03Z,42.805,6.029,13.2972,4.59973,2470.077,2020-8-15T13:32:52Z
2020-08-15T11:35:06Z,42.805,6.029,13.2970,4.59972,2470.063,2020-8-15T13:35:55Z
2020-08-15T11:38:09Z,42.805,6.029,13.2971,4.59971,2470.04,2020-8-15T13:38:59Z
2020-08-15T11:41:13Z,42.805,6.029,13.2976,4.59972,2470.04,2020-8-15T13:42:02Z
2020-08-15T11:44:16Z,42.805,6.029,13.2973,4.59973,2470.03,2020-8-15T13:45:05Z
2020-08-15T11:47:19Z,42.805,6.029,13.2970,4.59976,2470.053,2020-8-15T13:48:08Z
2020-08-15T11:50:22Z,42.805,6.029,13.2971,4.59973,2470.053,2020-8-15T13:51:12Z
2020-08-15T11:53:26Z,42.805,6.029,13.2975,4.59973,2470.04,2020-8-15T13:54:15Z
2020-08-15T11:56:29Z,42.805,6.029,13.2973,4.59973,2470.003,2020-8-15T13:57:18Z
2020-08-15T11:59:32Z,42.805,6.029,13.2974,4.59973,2470.04,2020-8-15T14:00:21Z
2020-08-15T12:02:35Z,42.805,6.029,13.2971,4.59973,2470.04,2020-8-15T14:03:25Z
2020-08-15T12:05:39Z,42.805,6.029,13.2970,4.59973,2470.017,2020-8-15T14:06:28Z
2020-08-15T12:08:42Z,42.805,6.029,13.2974,4.59973,2470.03,2020-8-15T14:09:32Z
2020-08-15T12:11:46Z,42.805,6.029,13.2973,4.59973,2470.077,2020-8-15T14:12:35Z
2020-08-15T12:14:49Z,42.805,6.029,13.2971,4.59973,2470.026,2020-8-15T14:15:38Z
2020-08-15T12:17:52Z,42.805,6.029,13.2971,4.59972,2470.04,2020-8-15T14:18:41Z
2020-08-15T12:20:55Z,42.805,6.029,13.2972,4.59977,2470.053,2020-8-15T14:21:44Z
2020-08-15T12:23:58Z,42.805,6.029,13.2971,4.59973,2470.053,2020-8-15T14:24:48Z
2020-08-15T12:27:02Z,42.805,6.029,13.2971,4.59973,2470.04,2020-8-15T14:27:51Z
2020-08-15T12:30:05Z,42.805,6.029,13.2971,4.59971,2470.04,2020-8-15T14:30:54Z
2020-08-15T12:33:08Z,42.805,6.029,13.2972,4.59972,2470.063,2020-8-15T14:33:57Z
2020-08-15T12:36:11Z,42.805,6.029,13.2971,4.59974,2470.04,2020-8-15T14:37:01Z
2020-08-15T12:39:15Z,42.805,6.029,13.2971,4.59973,2470.017,2020-8-15T14:40:04Z
2020-08-15T12:42:18Z,42.805,6.029,13.2973,4.59972,2470.077,2020-8-15T14:43:07Z
2020-08-15T12:45:21Z,42.805,6.029,13.2977,4.59973,2470.063,2020-8-15T14:46:10Z
2020-08-15T12:48:24Z,42.805,6.029,13.2978,4.59973,2470.053,2020-8-15T14:49:13Z
2020-08-15T12:51:28Z,42.805,6.029,13.2971,4.59972,2470.087,2020-8-15T14:52:17Z
2020-08-15T12:54:31Z,42.805,6.029,13.2971,4.59973,2470.087,2020-8-15T14:55:20Z
2020-08-15T12:57:34Z,42.805,6.029,13.2972,4.59973,2470.053,2020-8-15T14:58:23Z
2020-08-15T13:00:37Z,42.805,6.029,13.2971,4.59973,2470.087,2020-8-15T15:01:26Z
2020-08-15T13:03:40Z,42.805,6.029,13.2971,4.59972,2470.063,2020-8-15T15:04:30Z
2020-08-15T13:06:44Z,42.805,6.029,13.2971,4.59973,2470.1,2020-8-15T15:07:33Z
2020-08-15T13:09:47Z,42.805,6.029,13.2972,4.59973,2470.063,2020-8-15T15:10:36Z
2020-08-15T13:12:50Z,42.805,6.029,13.2973,4.59973,2470.04,2020-8-15T15:13:40Z
2020-08-15T13:15:54Z,42.805,6.029,13.2971,4.59973,2470.077,2020-8-15T15:16:43Z
2020-08-15T13:18:57Z,42.805,6.029,13.2971,4.59973,2470.063,2020-8-15T15:19:46Z
2020-08-15T13:22:00Z,42.805,6.029,13.2969,4.59973,2470.063,2020-8-15T15:22:49Z
2020-08-15T13:25:03Z,42.805,6.029,13.2970,4.59977,2470.087,2020-8-15T15:25:53Z
2020-08-15T13:28:07Z,42.805,6.029,13.2972,4.59973,2470.124,2020-8-15T15:28:56Z
2020-08-15T13:31:10Z,42.805,6.029,13.2970,4.59974,2470.087,2020-8-15T15:31:59Z
2020-08-15T13:34:13Z,42.805,6.029,13.2972,4.59974,2470.063,2020-8-15T15:35:02Z
2020-08-15T13:37:16Z,42.805,6.029,13.2971,4.59976,2470.087,2020-8-15T15:38:06Z
2020-08-15T13:40:20Z,42.805,6.029,13.2971,4.59973,2470.063,2020-8-15T15:41:09Z
2020-08-15T13:43:23Z,42.805,6.029,13.2974,4.59973,2470.133,2020-8-15T15:44:12Z
2020-08-15T13:46:26Z,42.805,6.029,13.2974,4.59974,2470.11,2020-8-15T15:47:15Z
2020-08-15T13:49:29Z,42.805,6.029,13.2973,4.59973,2470.156,2020-8-15T15:50:19Z
2020-08-15T13:52:32Z,42.805,6.029,13.2972,4.59974,2470.133,2020-8-15T15:53:22Z
2020-08-15T13:55:36Z,42.805,6.029,13.2971,4.59973,2470.133,2020-8-15T15:56:25Z
2020-08-15T13:58:39Z,42.805,6.029,13.2971,4.59973,2470.133,2020-8-15T15:59:28Z
2020-08-15T14:01:42Z,42.805,6.029,13.2971,4.59973,2470.147,2020-8-15T16:02:31Z
2020-08-15T14:04:45Z,42.805,6.029,13.2972,4.59972,2470.087,2020-8-15T16:05:35Z
2020-08-15T14:07:49Z,42.805,6.029,13.2974,4.59975,2470.124,2020-8-15T16:08:38Z
2020-08-15T14:10:52Z,42.805,6.029,13.2973,4.59973,2470.138,2020-8-15T16:11:41Z
2020-08-15T14:13:55Z,42.805,6.029,13.2972,4.59973,2470.147,2020-8-15T16:14:44Z
2020-08-15T14:16:59Z,42.805,6.029,13.2974,4.59973,2470.147,2020-8-15T16:17:48Z
2020-08-15T14:20:02Z,42.805,6.029,13.2972,4.59974,2470.147,2020-8-15T16:20:51Z
2020-08-15T14:23:05Z,42.805,6.029,13.2974,4.59973,2470.124,2020-8-15T16:23:54Z
2020-08-15T14:26:08Z,42.805,6.029,13.2971,4.59974,2470.147,2020-8-15T16:26:57Z
2020-08-15T14:29:11Z,42.805,6.029,13.2971,4.59974,2470.124,2020-8-15T16:30:01Z
2020-08-15T14:32:15Z,42.805,6.029,13.2969,4.59974,2470.1,2020-8-15T16:33:04Z
2020-08-15T14:35:18Z,42.805,6.029,13.2974,4.59973,2470.147,2020-8-15T16:36:07Z
2020-08-15T14:38:21Z,42.805,6.029,13.2974,4.59974,2470.087,2020-8-15T16:39:10Z
2020-08-15T14:41:24Z,42.805,6.029,13.2971,4.59973,2470.156,2020-8-15T16:42:14Z
2020-08-15T14:44:28Z,42.805,6.029,13.2967,4.59976,2470.11,2020-8-15T16:45:17Z
2020-08-15T14:47:31Z,42.805,6.029,13.2972,4.59975,2470.133,2020-8-15T16:48:20Z
2020-08-15T14:50:34Z,42.805,6.029,13.2973,4.59973,2470.147,2020-8-15T16:51:24Z
2020-08-15T14:53:38Z,42.805,6.029,13.2973,4.59974,2470.147,2020-8-15T16:54:27Z
2020-08-15T14:56:41Z,42.805,6.029,13.2971,4.59973,2470.147,2020-8-15T16:57:30Z
2020-08-15T14:59:44Z,42.805,6.029,13.2973,4.59973,2470.147,2020-8-15T17:00:33Z
2020-08-15T15:02:47Z,42.805,6.029,13.2969,4.59973,2470.156,2020-8-15T17:03:37Z
2020-08-15T15:05:50Z,42.805,6.029,13.2968,4.59973,2470.147,2020-8-15T17:06:40Z
2020-08-15T15:08:54Z,42.805,6.029,13.2973,4.59974,2470.133,2020-8-15T17:09:43Z
2020-08-15T15:11:57Z,42.805,6.029,13.2973,4.59973,2470.156,2020-8-15T17:12:46Z
2020-08-15T15:15:00Z,42.805,6.029,13.2972,4.59973,2470.133,2020-8-15T17:15:49Z